DRK301 VGHS-VQPR

Flight info

Callsign DRK301
Flight time N/A
Altitude 34000
Route TEGAK1A/14 TEGAK DCT SDP/N0469F330 DCT BOGOP BOGOP1A
Aircraft A319/M-SDE3FGHIRWY/LB1

Departure

Time N/A
Airport Hazrat Shahjalal International Airport (VGHS)

Arrival

Time 2026-05-01 11:46
Airport Paro International Airport (VQPR)
Time Latitude Longitude Altitude Speed Heading
2026-05-01 11:35 27.04209 89.53608 16292 ft 316 kts 352°
2026-05-01 11:35 27.06379 89.53355 16148 ft 302 kts 351°
2026-05-01 11:35 27.08384 89.53124 16039 ft 286 kts 351°
2026-05-01 11:35 27.10311 89.52900 15911 ft 272 kts 352°
2026-05-01 11:36 27.12173 89.52680 15551 ft 269 kts 351°
2026-05-01 11:36 27.13986 89.52464 15415 ft 255 kts 351°
2026-05-01 11:36 27.15698 89.52263 15234 ft 242 kts 351°
2026-05-01 11:36 27.17337 89.52069 14919 ft 233 kts 351°
2026-05-01 11:37 27.18967 89.51874 14349 ft 238 kts 352°
2026-05-01 11:37 27.20584 89.51679 14095 ft 229 kts 352°
2026-05-01 11:37 27.22177 89.51609 13685 ft 229 kts
2026-05-01 11:37 27.23742 89.51841 13264 ft 226 kts 11°
2026-05-01 11:38 27.25211 89.52356 12862 ft 222 kts 21°
2026-05-01 11:38 27.26584 89.53113 12491 ft 217 kts 28°
2026-05-01 11:38 27.27878 89.53885 12345 ft 203 kts 27°
2026-05-01 11:38 27.29201 89.54374 12193 ft 199 kts
2026-05-01 11:39 27.30556 89.54240 12090 ft 193 kts 340°
2026-05-01 11:39 27.31708 89.53575 12028 ft 183 kts 318°
2026-05-01 11:39 27.32536 89.52538 11942 ft 177 kts 297°
2026-05-01 11:39 27.32981 89.51272 11866 ft 173 kts 278°
2026-05-01 11:40 27.33014 89.49937 11785 ft 171 kts 261°
2026-05-01 11:40 27.32987 89.48594 11534 ft 172 kts 275°
2026-05-01 11:40 27.33298 89.47290 11283 ft 174 kts 291°
2026-05-01 11:40 27.33936 89.46123 11034 ft 178 kts 310°
2026-05-01 11:41 27.34971 89.45339 10844 ft 181 kts 330°
2026-05-01 11:41 27.36088 89.44683 10745 ft 182 kts 332°
2026-05-01 11:41 27.37218 89.44029 10718 ft 182 kts 334°
2026-05-01 11:41 27.38371 89.43485 10712 ft 178 kts 337°
2026-05-01 11:42 27.39511 89.42989 10706 ft 175 kts 338°
2026-05-01 11:42 27.40637 89.42458 10444 ft 176 kts 330°
2026-05-01 11:42 27.41466 89.41491 10171 ft 173 kts 293°
2026-05-01 11:42 27.41683 89.40192 9922 ft 168 kts 266°
2026-05-01 11:43 27.41656 89.38889 9837 ft 167 kts 267°
2026-05-01 11:43 27.41769 89.37595 9674 ft 169 kts 278°
2026-05-01 11:43 27.42225 89.36390 9455 ft 172 kts 311°
2026-05-01 11:44 27.44239 89.36685 8665 ft 162 kts 66°
2026-05-01 11:44 27.44425 89.37901 8417 ft 156 kts 98°
2026-05-01 11:44 27.44215 89.39073 8124 ft 151 kts 110°
2026-05-01 11:44 27.43850 89.40169 7935 ft 149 kts 113°
2026-05-01 11:45 27.43327 89.41153 7784 ft 149 kts 142°
2026-05-01 11:45 27.42370 89.41552 7632 ft 150 kts 170°
2026-05-01 11:45 27.41379 89.41822 7442 ft 145 kts 156°
2026-05-01 11:45 27.40523 89.42349 7334 ft 127 kts 149°
2026-05-01 11:46 27.39896 89.42746 7323 ft 79 kts 150°
2026-05-01 11:46 27.39573 89.42952 7318 ft 34 kts 150°
2026-05-01 11:46 27.39441 89.43002 7315 ft 14 kts 215°
2026-05-01 11:46 27.39448 89.42923 7321 ft 12 kts 324°
2026-05-01 11:47 27.39540 89.42866 7324 ft 18 kts 330°
2026-05-01 11:47 27.39653 89.42795 7325 ft 20 kts 331°
2026-05-01 11:47 27.39782 89.42711 7325 ft 23 kts 329°
2026-05-01 11:47 27.39921 89.42623 7326 ft 23 kts 331°
2026-05-01 11:48 27.40062 89.42534 7326 ft 23 kts 330°
2026-05-01 11:48 27.40202 89.42445 7327 ft 23 kts 330°
2026-05-01 11:48 27.40343 89.42355 7329 ft 23 kts 330°
2026-05-01 11:48 27.40483 89.42266 7330 ft 23 kts 331°
2026-05-01 11:49 27.40547 89.42199 7329 ft 7 kts 263°
2026-05-01 11:49 27.40533 89.42169 7327 ft 3 kts 243°
2026-05-01 11:49 27.40526 89.42154 7328 ft 0 kts 240°